Tracking 27107 objects as of 21-Mar-2023
HD Live streaming from Space Station
objects crossing your sky now

STARLINK-1846

Track STARLINK-1846 now!
10-day predictions
STARLINK-1846 is classified as:


NORAD ID: 47136
Int'l Code: 2020-088Q
Perigee: 553.3 km
Apogee: 555.3 km
Inclination: 53.1 °
Period: 95.6 minutes
Semi major axis: 6925 km
RCS: Unknown
Launch date: November 25, 2020
Source: United States (US)
Launch site: AIR FORCE EASTERN TEST RANGE (AFETR)
Your satellite tracking list
Your tracking list is empty




NASA's NSSDC Master Catalog

Two Line Element Set (TLE):
1 47136U 20088Q   23080.43662319  .00019598  00000-0  13304-2 0  9991
2 47136  53.0533 129.0198 0001455  96.6523 263.4632 15.06415417128414
Source of the keplerian elements: AFSPC